Weather History for KMCI - August, 2013

Change the Weather History Date:

Tuesday, August 20, 2013

  Actual Average Record
Temperature  
Mean Temperature 76 °F 77 °F  
Max Temperature 87 °F 87 °F 103 °F (2003)
Min Temperature 65 °F 67 °F 49 °F (1950)
Degree Days  
Heating Degree Days 0 0  
Month to date heating degree days 0 0  
Since 1 June heating degree days 17 9  
Since 1 July heating degree days 0 0  
Cooling Degree Days 11 12  
Month to date cooling degree days 163 257  
Year to date cooling degree days 911 1053  
Since 1 June cooling degree days 806 937  
Growing Degree Days 26 (Base 50)    
Moisture  
Dew Point 63 °F    
Average Humidity 66    
Maximum Humidity 87    
Minimum Humidity 45    
Precipitation  
Precipitation 0.00 in 0.12 in 2.40 in (2011)
Month to date precipitation 2.12 2.42  
Year to date precipitation 22.67 25.93  
Snow  
Snow 0.00 in 0.00 in 0.00 in ()
Month to date snowfall 0.0 0.0  
Since 1 June snowfall 0.0 0.0  
Since 1 July snowfall 0.0 0.0  
Snow Depth 0.00 in    
Sea Level Pressure  
Sea Level Pressure 30.01 in    
Wind  
Wind Speed 10 mph (South)    
Max Wind Speed 16 mph    
Max Gust Speed 22 mph    
Visibility 10 miles    
Events      
T = Trace of Precipitation, MM = Missing Value Source: NWS Daily Summary

Daily Weather History Graph

Daily Weather History Graph

Search for Another Location

Airport or City:

Trip Planner

Search our weather history database for the weather conditions in past years. The results will help you decide how hot, cold, wet, or windy it might be!

Date:

Astronomy

Aug. 20, 2013 Rise Set
Actual Time 6:36 AM CDT 8:07 PM CDT
Civil Twilight 6:08 AM CDT 8:35 PM CDT
Nautical Twilight 5:34 AM CDT 9:09 PM CDT
Astronomical Twilight 4:58 AM CDT 9:44 PM CDT
Moon 7:39 PM CDT (8/20) 6:07 AM CDT (8/20)
Length of Visible Light 14h 26m
Length of Day
13h 30m
Full, 100% of the Moon is Illuminated
Aug 20
Full
Aug 20
Full
Aug 28
Last Quarter
Sep 5
New
Sep 12
First Quarter

Hourly Weather History & Observations

Time (CDT) Temp. Heat Index Dew Point Humidity Pressure Visibility Wind Dir Wind Speed Gust Speed Precip Events Conditions
12:53 AM 69.1 °F - 62.1 °F 78% 30.01 in 10.0 mi South 9.2 mph - N/A   Partly Cloudy
1:53 AM 68.0 °F - 62.1 °F 81% 30.01 in 10.0 mi South 9.2 mph - N/A   Partly Cloudy
2:53 AM 66.9 °F - 61.0 °F 81% 30.01 in 10.0 mi South 9.2 mph - N/A   Clear
3:53 AM 66.0 °F - 61.0 °F 84% 30.00 in 10.0 mi South 8.1 mph - N/A   Clear
4:53 AM 66.0 °F - 61.0 °F 84% 30.00 in 10.0 mi South 9.2 mph - N/A   Clear
5:53 AM 64.9 °F - 61.0 °F 87% 30.01 in 10.0 mi South 8.1 mph - N/A   Clear
6:53 AM 66.0 °F - 61.0 °F 84% 30.01 in 9.0 mi South 9.2 mph - N/A   Partly Cloudy
7:53 AM 70.0 °F - 63.0 °F 78% 30.03 in 10.0 mi South 6.9 mph - N/A   Partly Cloudy
8:53 AM 73.9 °F - 64.0 °F 71% 30.04 in 10.0 mi South 10.4 mph - N/A   Scattered Clouds
9:53 AM 78.1 °F - 64.0 °F 62% 30.05 in 10.0 mi South 11.5 mph - N/A   Partly Cloudy
10:53 AM 81.0 °F 82.7 °F 64.9 °F 58% 30.05 in 7.0 mi South 12.7 mph - N/A   Scattered Clouds
11:53 AM 82.9 °F 84.6 °F 64.9 °F 54% 30.04 in 10.0 mi SSW 13.8 mph - N/A   Scattered Clouds
12:53 PM 84.9 °F 86.1 °F 64.0 °F 49% 30.03 in 10.0 mi SSW 11.5 mph - N/A   Partly Cloudy
1:53 PM 86.0 °F 86.8 °F 63.0 °F 46% 30.01 in 10.0 mi South 12.7 mph - N/A   Partly Cloudy
2:53 PM 87.1 °F 88.3 °F 64.0 °F 46% 30.00 in 10.0 mi SSW 10.4 mph - N/A   Partly Cloudy
3:53 PM 87.1 °F 88.3 °F 64.0 °F 46% 29.99 in 10.0 mi South 12.7 mph - N/A   Partly Cloudy
4:53 PM 87.1 °F 88.3 °F 64.0 °F 46% 29.98 in 10.0 mi South 11.5 mph - N/A   Scattered Clouds
5:53 PM 86.0 °F 87.3 °F 64.0 °F 48% 29.97 in 10.0 mi South 10.4 mph - N/A   Partly Cloudy
6:53 PM 82.9 °F 84.6 °F 64.9 °F 54% 29.97 in 10.0 mi SSW 10.4 mph - N/A   Partly Cloudy
7:53 PM 77.0 °F - 66.0 °F 69% 29.97 in 10.0 mi South 5.8 mph - N/A   Clear
8:53 PM 73.0 °F - 64.9 °F 76% 29.99 in 10.0 mi South 8.1 mph - N/A   Clear
9:53 PM 72.0 °F - 64.9 °F 78% 30.01 in 10.0 mi SSE 8.1 mph - N/A   Clear
10:53 PM 71.1 °F - 64.9 °F 81% 30.02 in 10.0 mi SSE 8.1 mph - N/A   Clear
11:53 PM 71.1 °F - 64.9 °F 81% 30.02 in 10.0 mi South 9.2 mph - N/A   Clear